Time,TemperatureF,DewpointF,PressureIn,WindDirection,WindDirectionDegrees,WindSpeedMPH,WindSpeedGustMPH,Humidity,HourlyPrecipIn,Conditions,Clouds,dailyrainin,SoftwareType,DateUTC
2013-06-22 00:06:00,72.3,69.0,30.01,SSE,153,6.0,8.0,90,0.00,,,0.00,weatherlink.com 1.10,2013-06-22 05:06:00,
2013-06-22 00:21:00,72.5,69.0,30.01,ESE,120,5.0,8.0,89,0.00,,,0.00,weatherlink.com 1.10,2013-06-22 05:21:00,
2013-06-22 00:52:00,72.5,69.0,29.99,SSE,156,6.0,8.0,89,0.00,,,0.00,weatherlink.com 1.10,2013-06-22 05:52:00,
2013-06-22 01:07:00,72.9,69.0,29.99,SSE,156,7.0,11.0,88,0.00,,,0.00,weatherlink.com 1.10,2013-06-22 06:07:00,
2013-06-22 01:22:00,72.8,70.0,29.98,SSE,165,6.0,10.0,89,0.00,,,0.00,weatherlink.com 1.10,2013-06-22 06:22:00,
2013-06-22 01:37:00,72.7,69.0,29.97,SSE,165,7.0,10.0,89,0.00,,,0.00,weatherlink.com 1.10,2013-06-22 06:37:00,
2013-06-22 01:52:00,72.6,69.0,29.96,SSE,150,8.0,12.0,89,0.00,,,0.00,weatherlink.com 1.10,2013-06-22 06:52:00,
2013-06-22 02:07:00,72.9,69.0,29.96,SSE,153,7.0,13.0,88,0.00,,,0.00,weatherlink.com 1.10,2013-06-22 07:07:00,
2013-06-22 02:22:00,72.7,69.0,29.96,SE,146,7.0,12.0,89,0.00,,,0.00,weatherlink.com 1.10,2013-06-22 07:22:00,
2013-06-22 02:37:00,72.7,69.0,29.96,South,179,5.0,11.0,89,0.00,,,0.00,weatherlink.com 1.10,2013-06-22 07:37:00,
2013-06-22 02:52:00,73.0,70.0,29.96,South,176,7.0,10.0,89,0.00,,,0.00,weatherlink.com 1.10,2013-06-22 07:52:00,
2013-06-22 03:07:00,72.8,70.0,29.96,South,169,9.0,11.0,90,0.00,,,0.00,weatherlink.com 1.10,2013-06-22 08:07:00,
2013-06-22 03:22:00,72.8,70.0,29.97,South,179,7.0,12.0,90,0.00,,,0.00,weatherlink.com 1.10,2013-06-22 08:22:00,
2013-06-22 03:37:00,72.8,70.0,29.97,South,181,8.0,11.0,90,0.00,,,0.00,weatherlink.com 1.10,2013-06-22 08:37:00,
2013-06-22 03:52:00,72.7,70.0,29.98,South,169,5.0,10.0,90,0.00,,,0.00,weatherlink.com 1.10,2013-06-22 08:52:00,
2013-06-22 04:07:00,72.5,70.0,29.98,SSE,162,7.0,10.0,91,0.00,,,0.00,weatherlink.com 1.10,2013-06-22 09:07:00,
2013-06-22 04:22:00,72.4,70.0,29.98,SSW,193,8.0,9.0,91,0.00,,,0.00,weatherlink.com 1.10,2013-06-22 09:22:00,
2013-06-22 04:37:00,72.5,70.0,29.98,SSW,205,7.0,11.0,91,0.00,,,0.00,weatherlink.com 1.10,2013-06-22 09:37:00,
2013-06-22 04:52:00,72.9,70.0,29.98,SSW,201,10.0,11.0,90,0.00,,,0.00,weatherlink.com 1.10,2013-06-22 09:52:00,
2013-06-22 05:07:00,73.3,70.0,29.98,SSW,212,8.0,13.0,88,0.00,,,0.00,weatherlink.com 1.10,2013-06-22 10:07:00,
2013-06-22 05:22:00,73.2,70.0,29.98,SSW,206,9.0,14.0,88,0.00,,,0.00,weatherlink.com 1.10,2013-06-22 10:22:00,
2013-06-22 05:52:00,73.5,70.0,30.00,SSW,200,7.0,14.0,88,0.00,,,0.00,weatherlink.com 1.10,2013-06-22 10:52:00,
2013-06-22 06:07:00,73.2,70.0,30.00,SSW,193,6.0,11.0,89,0.00,,,0.00,weatherlink.com 1.10,2013-06-22 11:07:00,
2013-06-22 06:22:00,72.7,70.0,30.00,South,170,5.0,9.0,90,0.00,,,0.00,weatherlink.com 1.10,2013-06-22 11:22:00,
2013-06-22 06:37:00,72.6,70.0,30.00,South,185,7.0,10.0,91,0.00,,,0.00,weatherlink.com 1.10,2013-06-22 11:37:00,
2013-06-22 06:52:00,72.8,70.0,30.00,SW,219,7.0,11.0,90,0.00,,,0.00,weatherlink.com 1.10,2013-06-22 11:52:00,
2013-06-22 07:08:00,73.5,70.0,30.00,SSW,212,8.0,13.0,89,0.00,,,0.00,weatherlink.com 1.10,2013-06-22 12:08:00,
2013-06-22 07:22:00,73.7,71.0,30.00,SW,231,10.0,12.0,90,0.00,,,0.00,weatherlink.com 1.10,2013-06-22 12:22:00,
2013-06-22 07:53:00,75.4,71.0,30.01,SW,218,11.0,13.0,87,0.00,,,0.00,weatherlink.com 1.10,2013-06-22 12:53:00,
2013-06-22 08:08:00,76.0,72.0,30.01,SW,215,12.0,16.0,86,0.00,,,0.00,weatherlink.com 1.10,2013-06-22 13:08:00,
2013-06-22 08:29:00,77.6,73.0,30.00,SW,224,10.0,17.0,84,0.00,,,0.00,weatherlink.com 1.10,2013-06-22 13:29:00,
2013-06-22 08:38:00,77.8,72.0,30.00,SW,221,10.0,17.0,83,0.00,,,0.00,weatherlink.com 1.10,2013-06-22 13:38:00,
2013-06-22 08:53:00,78.0,73.0,30.00,SW,219,13.0,14.0,83,0.00,,,0.00,weatherlink.com 1.10,2013-06-22 13:53:00,
2013-06-22 09:08:00,79.0,73.0,30.00,SW,231,12.0,18.0,81,0.00,,,0.00,weatherlink.com 1.10,2013-06-22 14:08:00,
2013-06-22 09:23:00,79.0,73.0,30.01,SW,221,7.0,14.0,82,0.00,,,0.00,weatherlink.com 1.10,2013-06-22 14:23:00,
2013-06-22 09:38:00,78.3,73.0,30.03,West,280,5.0,12.0,84,0.00,,,0.00,weatherlink.com 1.10,2013-06-22 14:38:00,
2013-06-22 09:53:00,77.6,73.0,30.02,NW,315,2.0,4.0,85,0.00,,,0.00,weatherlink.com 1.10,2013-06-22 14:53:00,
2013-06-22 10:08:00,76.9,73.0,30.03,NW,321,0.0,2.0,86,0.00,,,0.00,weatherlink.com 1.10,2013-06-22 15:08:00,
2013-06-22 10:23:00,75.7,72.0,30.02,ENE,68,1.0,3.0,88,0.00,,,0.00,weatherlink.com 1.10,2013-06-22 15:23:00,
2013-06-22 10:38:00,74.5,71.0,30.02,ENE,64,0.0,1.0,89,0.00,,,0.00,weatherlink.com 1.10,2013-06-22 15:38:00,
2013-06-22 10:53:00,73.7,70.0,30.03,East,91,1.0,1.0,89,0.00,,,0.00,weatherlink.com 1.10,2013-06-22 15:53:00,
2013-06-22 11:08:00,73.3,71.0,30.02,NE,55,0.0,2.0,91,0.00,,,0.00,weatherlink.com 1.10,2013-06-22 16:08:00,
2013-06-22 11:23:00,72.8,70.0,30.04,East,89,0.0,2.0,91,0.00,,,0.00,weatherlink.com 1.10,2013-06-22 16:23:00,
2013-06-22 11:38:00,73.1,70.0,30.04,ENE,78,4.0,6.0,91,0.00,,,0.00,weatherlink.com 1.10,2013-06-22 16:38:00,
2013-06-22 11:53:00,73.1,71.0,30.02,ENE,73,3.0,4.0,92,0.00,,,0.00,weatherlink.com 1.10,2013-06-22 16:53:00,
2013-06-22 12:08:00,72.8,71.0,30.02,ENE,58,5.0,6.0,94,0.00,,,0.00,weatherlink.com 1.10,2013-06-22 17:08:00,
2013-06-22 12:23:00,72.0,70.0,30.03,East,101,3.0,8.0,92,0.00,,,0.00,weatherlink.com 1.10,2013-06-22 17:23:00,
2013-06-22 12:38:00,72.3,70.0,30.01,East,101,3.0,9.0,91,0.00,,,0.00,weatherlink.com 1.10,2013-06-22 17:38:00,
2013-06-22 13:08:00,72.7,70.0,30.05,ESE,123,6.0,11.0,92,0.00,,,0.00,weatherlink.com 1.10,2013-06-22 18:08:00,
2013-06-22 13:23:00,72.3,70.0,30.03,ESE,105,6.0,8.0,93,0.00,,,0.00,weatherlink.com 1.10,2013-06-22 18:23:00,
2013-06-22 13:38:00,72.2,70.0,30.03,ENE,68,9.0,9.0,94,0.00,,,0.00,weatherlink.com 1.10,2013-06-22 18:38:00,
2013-06-22 13:53:00,72.6,70.0,30.03,SE,136,6.0,14.0,90,0.00,,,0.00,weatherlink.com 1.10,2013-06-22 18:53:00,
2013-06-22 14:08:00,72.6,69.0,30.02,SE,127,9.0,12.0,87,0.00,,,0.00,weatherlink.com 1.10,2013-06-22 19:08:00,
2013-06-22 14:23:00,72.6,69.0,30.00,SE,146,4.0,6.0,87,0.00,,,0.00,weatherlink.com 1.10,2013-06-22 19:23:00,
2013-06-22 14:38:00,72.4,69.0,29.98,SE,125,5.0,7.0,88,0.00,,,0.00,weatherlink.com 1.10,2013-06-22 19:38:00,
2013-06-22 14:53:00,72.6,69.0,29.99,SE,146,5.0,10.0,88,0.00,,,0.00,weatherlink.com 1.10,2013-06-22 19:53:00,
2013-06-22 15:08:00,72.6,69.0,29.98,South,169,5.0,8.0,89,0.00,,,0.00,weatherlink.com 1.10,2013-06-22 20:08:00,
2013-06-22 15:23:00,72.3,69.0,29.98,SSW,197,5.0,13.0,90,0.00,,,0.00,weatherlink.com 1.10,2013-06-22 20:23:00,
2013-06-22 15:38:00,72.0,69.0,29.98,SSE,160,6.0,10.0,91,0.00,,,0.00,weatherlink.com 1.10,2013-06-22 20:38:00,
2013-06-22 15:53:00,72.1,69.0,30.00,SSW,207,8.0,16.0,90,0.00,,,0.00,weatherlink.com 1.10,2013-06-22 20:53:00,
2013-06-22 16:08:00,71.7,69.0,29.99,SSE,163,7.0,14.0,90,0.00,,,0.00,weatherlink.com 1.10,2013-06-22 21:08:00,
2013-06-22 16:23:00,71.6,68.0,29.98,South,173,10.0,17.0,89,0.00,,,0.00,weatherlink.com 1.10,2013-06-22 21:23:00,
2013-06-22 16:54:00,70.9,67.0,29.99,South,190,15.0,19.0,86,0.00,,,0.00,weatherlink.com 1.10,2013-06-22 21:54:00,
2013-06-22 17:09:00,70.6,67.0,29.99,SSE,155,11.0,16.0,87,0.00,,,0.00,weatherlink.com 1.10,2013-06-22 22:09:00,
2013-06-22 17:24:00,70.5,67.0,29.98,SSE,149,11.0,15.0,87,0.00,,,0.00,weatherlink.com 1.10,2013-06-22 22:24:00,
2013-06-22 17:39:00,70.6,67.0,29.98,South,177,7.0,15.0,88,0.00,,,0.00,weatherlink.com 1.10,2013-06-22 22:39:00,
2013-06-22 17:54:00,70.4,67.0,29.98,SSW,194,14.0,16.0,89,0.00,,,0.00,weatherlink.com 1.10,2013-06-22 22:54:00,
2013-06-22 18:09:00,70.1,67.0,29.95,SW,215,16.0,18.0,90,0.00,,,0.00,weatherlink.com 1.10,2013-06-22 23:09:00,
2013-06-22 18:24:00,69.9,67.0,29.95,SSW,193,11.0,19.0,91,0.00,,,0.00,weatherlink.com 1.10,2013-06-22 23:24:00,
2013-06-22 18:39:00,70.0,67.0,29.95,SSW,200,16.0,20.0,90,0.00,,,0.00,weatherlink.com 1.10,2013-06-22 23:39:00,
2013-06-22 18:54:00,70.4,67.0,29.96,SW,222,12.0,18.0,89,0.00,,,0.00,weatherlink.com 1.10,2013-06-22 23:54:00,
2013-06-22 19:09:00,70.6,67.0,29.97,SW,221,9.0,15.0,89,0.00,,,0.00,weatherlink.com 1.10,2013-06-23 00:09:00,
2013-06-22 19:24:00,70.7,67.0,29.98,SSW,196,6.0,10.0,89,0.00,,,0.00,weatherlink.com 1.10,2013-06-23 00:24:00,
2013-06-22 19:39:00,70.3,67.0,29.97,SSW,205,4.0,9.0,90,0.00,,,0.00,weatherlink.com 1.10,2013-06-23 00:39:00,
2013-06-22 19:54:00,70.9,67.0,29.98,SW,235,6.0,15.0,87,0.00,,,0.00,weatherlink.com 1.10,2013-06-23 00:54:00,
2013-06-22 20:09:00,70.7,67.0,29.97,SSW,211,10.0,13.0,87,0.00,,,0.00,weatherlink.com 1.10,2013-06-23 01:09:00,
2013-06-22 20:24:00,70.5,66.0,29.97,SSE,163,9.0,15.0,86,0.00,,,0.00,weatherlink.com 1.10,2013-06-23 01:24:00,
2013-06-22 20:39:00,70.1,66.0,29.97,SSE,156,10.0,13.0,86,0.00,,,0.00,weatherlink.com 1.10,2013-06-23 01:39:00,
2013-06-22 20:54:00,69.6,66.0,29.96,SSE,158,11.0,17.0,88,0.00,,,0.00,weatherlink.com 1.10,2013-06-23 01:54:00,
2013-06-22 21:09:00,69.3,66.0,29.96,South,171,10.0,16.0,89,0.00,,,0.00,weatherlink.com 1.10,2013-06-23 02:09:00,
2013-06-22 21:24:00,69.0,66.0,29.96,SSW,197,8.0,14.0,89,0.00,,,0.00,weatherlink.com 1.10,2013-06-23 02:24:00,
2013-06-22 21:39:00,68.4,66.0,29.96,SSW,202,5.0,11.0,91,0.00,,,0.00,weatherlink.com 1.10,2013-06-23 02:39:00,
2013-06-22 21:54:00,68.1,65.0,29.97,SSW,212,5.0,10.0,91,0.00,,,0.00,weatherlink.com 1.10,2013-06-23 02:54:00,
2013-06-22 22:09:00,67.6,65.0,29.98,SSW,202,3.0,8.0,92,0.00,,,0.00,weatherlink.com 1.10,2013-06-23 03:09:00,
2013-06-22 22:24:00,67.5,66.0,29.97,South,184,7.0,10.0,93,0.00,,,0.00,weatherlink.com 1.10,2013-06-23 03:24:00,
2013-06-22 22:54:00,67.4,65.0,29.97,SW,228,4.0,8.0,93,0.00,,,0.00,weatherlink.com 1.10,2013-06-23 03:54:00,
2013-06-22 23:09:00,66.6,65.0,29.98,WSW,250,3.0,5.0,94,0.00,,,0.00,weatherlink.com 1.10,2013-06-23 04:09:00,
2013-06-22 23:24:00,66.0,65.0,29.98,SSW,193,1.0,2.0,95,0.00,,,0.00,weatherlink.com 1.10,2013-06-23 04:24:00,
2013-06-22 23:39:00,65.9,65.0,29.99,SSW,200,0.0,3.0,95,0.00,,,0.00,weatherlink.com 1.10,2013-06-23 04:39:00,
2013-06-22 23:54:00,65.9,65.0,29.99,SSE,156,0.0,1.0,95,0.00,,,0.00,weatherlink.com 1.10,2013-06-23 04:54:00,